Stations météo

Publicité
Rodez, France (7552): Température de l'air & dewpoint: 17.04.2017 23:00:00 - 23.04.2017 23:00:00 (CEST)Rodez, France (7552): Température de l'air 5cm: 17.04.2017 23:00:00 - 23.04.2017 23:00:00 (CEST)Rodez, France (7552): Vitesse du vent & gusts: 17.04.2017 23:00:00 - 23.04.2017 23:00:00 (CEST)Rodez, France (7552): Direction du vent: 17.04.2017 23:00:00 - 23.04.2017 23:00:00 (CEST)Rodez, France (7552): reduced air pressure: 17.04.2017 23:00:00 - 23.04.2017 23:00:00 (CEST)Rodez, France (7552): visibility: 17.04.2017 23:00:00 - 23.04.2017 23:00:00 (CEST)Rodez, France (7552): Ensoleillement: 17.04.2017 23:00:00 - 23.04.2017 23:00:00 (CEST)Rodez, France (7552): Quantités de précipitations: 17.04.2017 23:00:00 - 23.04.2017 23:00:00 (CEST)
Date & Time tt [°C] td [°C] tt 5cm [°C] ff [km/h] ff [knt] fx [km/h] fx [knt] dd ppp [hPa] vv [km] sd [min] rr [mm]
23.04.2017 23:00:00 13,0 2,8 3,9 10 5 11 6 ENE 1017,1 60 0 0,0
23.04.2017 22:00:00 15,8 2,2 7,3 6 4 9 5 ENE 1016,3 60 0 0,0
23.04.2017 21:00:00 17,6 1,9 8,0 3 2 10 6 NW 1015,6 60 9 0,0
23.04.2017 20:00:00 19,1 2,9 17,6 8 4 15 8 NW 1015,0 58 60 0,0
23.04.2017 19:00:00 20,9 2,2 25,3 7 4 22 12 WNW 1014,6 52 60 0,0
23.04.2017 18:00:00 21,0 2,3 27,4 12 6 21 12 NW 1014,7 47 60 0,0
23.04.2017 17:00:00 21,0 3,2 29,6 8 5 21 11 NW 1015,0 56 60 0,0
23.04.2017 16:00:00 20,6 0,9 30,8 11 6 22 12 N 1015,5 60 60 0,0
23.04.2017 15:00:00 19,9 2,3 30,7 10 6 22 12 WNW 1016,2 60 60 0,0
23.04.2017 14:00:00 19,3 3,4 30,0 8 5 18 10 NNW 1016,6 60 60 0,0
23.04.2017 13:00:00 18,1 1,6 29,0 6 3 18 10 N 1017,4 60 60 0,0
23.04.2017 12:00:00 17,0 2,6 26,7 11 6 19 10 N 1018,1 52 60 0,0
23.04.2017 11:00:00 16,1 3,5 24,7 8 5 19 10 NE 1018,5 60 60 0,0
23.04.2017 10:00:00 13,8 2,7 17,6 7 4 13 7 ENE 1019,0 32 60 0,0
23.04.2017 09:00:00 10,1 2,7 7,2 4 2 8 5 ESE 1020,1 41 60 0,0
23.04.2017 08:00:00 6,3 1,4 -2,0 0 0 4 2 N 1020,9 31 35 0,0
23.04.2017 07:00:00 3,4 -0,6 -1,9 3 2 10 6 SSE 1021,3 47 0 0,0
23.04.2017 06:00:00 5,3 0,7 -2,1 6 3 8 4 E 1020,8 50 0 0,0
23.04.2017 05:00:00 5,8 0,7 -1,7 6 3 7 4 NE 1020,8 54 0 0,0
23.04.2017 04:00:00 4,2 0,5 -1,7 2 1 7 4 S 1021,3 57 0 0,0
23.04.2017 03:00:00 5,2 0,2 -0,7 5 3 9 5 E 1021,5 60 0 0,0
23.04.2017 02:00:00 6,6 -0,9 2,6 5 3 13 7 ESE 1021,7 60 0 0,0
23.04.2017 01:00:00 11,1 -0,1 5,0 8 5 13 7 NE 1020,5 60 0 0,0
23.04.2017 00:00:00 12,2 0,3 2,7 9 5 14 8 NNE 1020,2 60 0 0,0
22.04.2017 23:00:00 13,9 0,5 5,1 3 2 11 6 NNW 1019,7 60 0 0,0
22.04.2017 22:00:00 14,7 1,2 9,4 10 5 17 9 NNW 1019,5 60 0 0,0
22.04.2017 21:00:00 14,5 0,7 11,7 14 8 18 10 WNW 1019,1 60 7 0,0
22.04.2017 20:00:00 18,3 1,3 17,1 15 8 23 12 WNW 1018,1 55 60 0,0
22.04.2017 19:00:00 20,5 0,8 24,0 16 9 25 13 NW 1017,8 60 60 0,0
22.04.2017 18:00:00 21,5 0,1 26,9 9 5 27 15 WNW 1017,9 60 60 0,0
22.04.2017 17:00:00 22,1 0,6 29,6 8 5 22 12 WNW 1018,2 60 60 0,0
22.04.2017 16:00:00 21,4 -0,6 30,7 5 3 22 12 WNW 1019,3 46 60 0,0
22.04.2017 15:00:00 20,2 -1,0 30,6 8 4 27 15 NW 1020,4 60 60 0,0
22.04.2017 14:00:00 20,2 0,1 30,7 8 5 15 8 WNW 1021,1 60 60 0,0
22.04.2017 13:00:00 18,7 -1,2 29,6 5 3 12 7 N 1022,4 60 60 0,0
22.04.2017 12:00:00 17,4 -4,6 28,4 5 3 12 7 NNW 1023,4 45 60 0,0
22.04.2017 11:00:00 16,4 -2,7 23,2 5 3 11 6 E 1023,9 48 60 0,0
22.04.2017 10:00:00 13,0 -1,7 14,9 5 3 13 7 ESE 1024,9 56 60 0,0
22.04.2017 09:00:00 8,4 -0,4 5,9 8 4 12 6 SE 1026,4 35 60 0,0
22.04.2017 08:00:00 3,3 -0,5 -3,8 4 2 10 5 SE 1027,6 31 33 0,0
22.04.2017 07:00:00 0,7 -1,4 -4,1 9 5 11 6 SSE 1027,9 28 0 0,0
22.04.2017 06:00:00 2,5 -2,6 -3,5 6 4 8 5 ESE 1027,4 38 0 0,0
22.04.2017 05:00:00 3,0 -1,9 -1,9 3 1 11 6 E 1027,7 39 0 0,0
22.04.2017 04:00:00 4,9 -1,1 -2,5 6 4 11 6 SE 1027,3 45 0 0,0
22.04.2017 03:00:00 6,5 -0,9 -1,4 9 5 13 7 SE 1027,2 49 0 0,0
22.04.2017 02:00:00 4,1 -1,7 -0,7 9 5 14 8 SSE 1028,3 41 0 0,0
22.04.2017 01:00:00 6,6 -2,6 -1,9 5 3 17 9 E 1027,8 60 0 0,0
22.04.2017 00:00:00 4,7 -1,5 -1,4 2 1 7 4 ESE 1028,4 60 0 0,0
21.04.2017 23:00:00 9,8 -4,2 0,0 0 0 7 4 N 1027,1 20 0 0,0
21.04.2017 22:00:00 9,4 -2,0 1,5 2 1 8 4 ENE 1027,0 60 0 0,0
21.04.2017 21:00:00 14,0 -4,7 7,8 6 4 11 6 NNW 1025,5 60 6 0,0
21.04.2017 20:00:00 16,3 -3,3 14,3 7 4 14 8 W 1024,7 58 60 0,0
21.04.2017 19:00:00 17,8 -4,2 22,3 3 2 15 8 NW 1024,6 60 60 0,0
21.04.2017 18:00:00 18,3 -5,1 26,7 5 3 19 10 NNE 1024,5 40 60 0,0
21.04.2017 17:00:00 18,1 -5,9 28,3 6 3 19 10 SSE 1024,8 19 60 0,0
21.04.2017 16:00:00 18,3 -6,5 28,2 6 3 14 8 SW 1025,3 60 60 0,0
21.04.2017 15:00:00 17,0 -7,5 27,6 6 3 19 10 ESE 1026,3 18 60 0,0
21.04.2017 14:00:00 15,5 -8,8 26,9 5 3 17 9 NNE 1026,9 60 60 0,0
21.04.2017 13:00:00 14,4 -9,0 26,1 7 4 16 9 E 1027,6 59 60 0,0
21.04.2017 12:00:00 13,2 -10,0 22,7 9 5 18 10 ESE 1028,0 60 60 0,0
21.04.2017 11:00:00 11,6 -11,3 18,9 10 5 20 11 ESE 1028,3 19 60 0,0
21.04.2017 10:00:00 9,6 -11,1 11,9 11 6 19 10 ESE 1028,6 48 60 0,0
21.04.2017 09:00:00 5,3 -7,9 2,8 12 7 20 11 E 1029,4 60 58 0,0
21.04.2017 08:00:00 1,9 -7,7 -7,2 6 3 16 9 NNE 1030,0 31 30 0,0
21.04.2017 07:00:00 -1,0 -7,4 -7,3 3 2 14 8 SE 1030,4 51 0 0,0
21.04.2017 06:00:00 -1,5 -7,4 -7,7 7 4 23 12 S 1030,4 51 0 0,0
21.04.2017 05:00:00 -2,8 -8,3 -7,8 5 3 10 6 SSE 1031,0 42 0 0,0
21.04.2017 04:00:00 0,2 -6,9 -7,8 4 2 7 4 SSE 1030,2 52 0 0,0
21.04.2017 03:00:00 0,9 -8,4 -5,7 3 2 10 6 SSW 1030,2 58 0 0,0
21.04.2017 02:00:00 2,2 -7,2 -5,7 6 3 10 5 E 1030,3 60 0 0,0
21.04.2017 01:00:00 3,7 -7,4 -1,8 9 5 17 9 NNE 1029,9 60 0 0,0
21.04.2017 00:00:00 5,0 -7,8 -1,6 11 6 17 9 NNE 1029,9 60 0 0,0
20.04.2017 23:00:00 6,3 -7,7 4,1 8 5 24 13 NE 1029,4 60 0 0,0
20.04.2017 22:00:00 7,6 -7,7 6,1 13 7 31 17 NE 1028,5 60 0 0,0
20.04.2017 21:00:00 9,1 -7,2 7,3 14 7 24 13 NE 1027,3 60 6 0,0
20.04.2017 20:00:00 11,9 -8,6 11,6 14 8 24 13 NNE 1026,0 42 60 0,0
20.04.2017 19:00:00 13,5 -9,1 18,5 15 8 29 16 NNE 1025,5 60 60 0,0
20.04.2017 18:00:00 14,2 -9,1 21,3 16 8 45 24 N 1025,4 60 60 0,0
20.04.2017 17:00:00 14,5 -5,3 21,7 12 7 26 14 NNW 1025,5 60 60 0,0
20.04.2017 16:00:00 13,3 -6,3 24,0 10 6 30 16 NNW 1026,3 19 60 0,0
20.04.2017 15:00:00 12,5 -5,5 23,3 13 7 33 18 NNW 1026,9 20 60 0,0
20.04.2017 14:00:00 11,7 -8,8 22,2 3 2 20 11 E 1027,6 60 60 0,0
20.04.2017 13:00:00 10,1 -8,1 20,3 10 5 23 12 ENE 1028,4 60 60 0,0
20.04.2017 12:00:00 8,7 -8,4 16,5 11 6 29 16 NNE 1029,0 46 60 0,0
20.04.2017 11:00:00 6,9 -7,5 13,8 16 9 24 13 ENE 1029,3 37 60 0,0
20.04.2017 10:00:00 4,6 -6,3 9,6 5 3 19 11 NE 1030,0 47 60 0,0
20.04.2017 09:00:00 2,6 -6,0 2,1 9 5 15 8 NE 1030,3 27 56 0,0
20.04.2017 08:00:00 1,1 -6,3 -1,8 0 0 25 14 N 1030,2 31 27 0,0
20.04.2017 07:00:00 -0,4 -6,2 -3,1 14 7 26 14 NNE 1030,0 46 0 0,0
20.04.2017 06:00:00 -0,2 -6,6 -4,1 7 4 16 9 NNE 1029,8 44 0 0,0
20.04.2017 05:00:00 0,4 -6,5 -1,3 13 7 22 12 NNE 1029,7 43 0 0,0
20.04.2017 04:00:00 1,3 -7,0 -0,1 10 6 34 18 NNE 1029,3 48 0 0,0
20.04.2017 03:00:00 2,0 -7,1 1,2 22 12 40 21 NNE 1028,9 56 0 0,0
20.04.2017 02:00:00 2,7 -6,7 1,2 17 9 36 19 NNE 1029,3 60 0 0,0
20.04.2017 01:00:00 3,5 -6,0 1,2 11 6 25 14 NNE 1029,2 60 0 0,0
20.04.2017 00:00:00 4,2 -5,6 2,8 16 9 34 18 NNE 1028,7 60 0 0,0
19.04.2017 23:00:00 4,8 -5,6 3,8 21 11 32 18 NNE 1028,3 60 0 0,0
19.04.2017 22:00:00 5,6 -6,3 4,5 17 9 36 20 NE 1027,9 60 0 0,0
19.04.2017 21:00:00 6,5 -6,8 5,6 23 12 38 20 NE 1026,6 60 7 0,0
19.04.2017 20:00:00 8,4 -6,2 8,6 22 12 41 22 NE 1025,5 36 60 0,0
19.04.2017 19:00:00 9,9 -7,8 13,9 27 15 44 24 NE 1024,8 38 60 0,0
19.04.2017 18:00:00 10,8 -7,5 16,7 22 12 41 22 NE 1024,2 33 60 0,0
19.04.2017 17:00:00 11,5 -9,5 17,4 24 13 45 25 NNE 1024,0 19 60 0,0
19.04.2017 16:00:00 12,1 -10,2 19,6 23 12 42 23 NNE 1024,1 19 60 0,0
19.04.2017 15:00:00 11,6 -7,8 19,4 22 12 42 23 N 1024,6 33 60 0,0
19.04.2017 14:00:00 10,9 -7,4 18,4 23 13 42 23 N 1025,0 19 60 0,0
19.04.2017 13:00:00 9,6 -6,3 18,3 22 12 47 25 NNE 1025,7 20 60 0,0
19.04.2017 12:00:00 9,0 -5,3 16,3 21 12 40 22 N 1026,0 20 60 0,0
19.04.2017 11:00:00 7,1 -5,6 12,5 20 11 39 21 N 1026,4 43 60 0,0
19.04.2017 10:00:00 5,0 -3,3 7,9 14 8 27 15 N 1027,0 45 60 0,0
19.04.2017 09:00:00 3,0 -2,3 1,9 17 9 25 14 N 1027,5 41 51 0,0
19.04.2017 08:00:00 0,9 -2,0 -0,8 10 6 16 8 NNW 1027,7 43 24 0,0
19.04.2017 07:00:00 0,7 -2,2 - 13 7 16 9 NNW 1027,2 60 - 0,0
19.04.2017 06:00:00 1,2 -2,2 -1,3 8 5 16 8 N 1026,9 60 0 0,0
19.04.2017 05:00:00 1,2 -2,0 -1,0 10 6 16 9 N 1026,9 60 0 0,0
19.04.2017 04:00:00 1,9 -2,1 -0,5 11 6 18 10 N 1026,6 60 0 0,0
19.04.2017 03:00:00 2,7 -2,2 0,7 11 6 25 13 N 1026,4 60 0 0,0
19.04.2017 02:00:00 3,5 -2,3 1,9 14 8 27 15 NNE 1026,3 60 0 0,0
19.04.2017 01:00:00 4,4 -2,9 2,7 19 10 35 19 NNE 1025,9 60 0 0,0
19.04.2017 00:00:00 5,2 -4,4 3,1 15 8 40 22 N 1025,3 60 0 0,0
18.04.2017 23:00:00 6,1 -5,9 4,6 23 13 37 20 NNE 1024,6 60 0 0,0
18.04.2017 22:00:00 7,3 -7,6 6,1 16 9 40 22 NNE 1023,7 60 0 0,0
18.04.2017 21:00:00 7,8 -7,9 6,6 16 9 38 20 NNE 1022,8 60 5 0,0
18.04.2017 20:00:00 9,5 -7,2 9,4 23 12 44 24 NNE 1021,7 43 60 0,0
18.04.2017 19:00:00 11,2 -6,7 16,3 21 12 38 21 NNE 1020,6 48 60 0,0
18.04.2017 18:00:00 12,3 -5,3 19,6 24 13 39 21 NE 1019,8 57 60 0,0
18.04.2017 17:00:00 12,9 -4,3 22,3 22 12 48 26 NE 1019,7 20 60 0,0
18.04.2017 16:00:00 13,0 -3,3 22,4 18 10 41 22 NE 1019,8 20 60 0,0
18.04.2017 15:00:00 12,5 -3,4 22,7 21 12 40 22 NE 1020,2 50 60 0,0
18.04.2017 14:00:00 12,1 -2,2 22,2 20 11 39 21 N 1020,3 58 60 0,0
18.04.2017 13:00:00 11,4 -3,2 - 21 11 35 19 NNE 1020,7 40 - 0,0
18.04.2017 12:00:00 10,7 -2,4 19,0 22 12 39 21 N 1021,0 19 60 0,0
18.04.2017 11:00:00 10,1 -1,9 16,5 21 11 34 18 N 1020,7 45 60 0,0
18.04.2017 10:00:00 9,1 -1,1 11,9 22 12 32 18 NNE 1020,5 39 60 0,0
18.04.2017 09:00:00 7,4 2,7 5,8 13 7 23 12 N 1020,8 20 49 0,0
18.04.2017 08:00:00 5,2 3,5 1,7 9 5 14 8 NNW 1020,9 16 18 0,0
18.04.2017 07:00:00 3,6 2,3 1,4 11 6 14 8 NW 1020,8 59 0 0,0
18.04.2017 06:00:00 5,2 2,5 1,3 9 5 14 7 NNW 1020,2 60 0 0,0
18.04.2017 05:00:00 5,2 2,7 2,8 13 7 17 9 NNW 1020,4 60 0 0,0
18.04.2017 04:00:00 6,8 2,9 - 11 6 16 9 NNW 1019,9 60 - 0,0
18.04.2017 03:00:00 6,1 2,2 - 9 5 15 8 NNW 1020,3 60 - 0,0
18.04.2017 02:00:00 5,1 1,9 -0,1 4 2 7 4 NW 1020,5 60 0 0,0
18.04.2017 01:00:00 7,8 2,7 3,5 5 3 14 8 NNW 1020,3 60 0 0,0
18.04.2017 00:00:00 9,2 3,2 5,5 8 4 19 10 N 1020,2 60 0 0,0
17.04.2017 23:00:00 10,6 4,7 8,2 12 7 24 13 N 1019,7 60 0 0,0

tt = Température de l'air
td = dewpoint
tt 5cm = Température de l'air 5cm
ff = Vitesse du vent
fx = gusts
dd = Direction du vent
ppp = reduced air pressure
vv = visibility
sd = Ensoleillement
rr = Quantités de précipitations

stations d'obs. à proximité